Location: Gaik
(50.4474°N, 20.6436°E)
Time: 11:35:07
(UTC+00:00)

Daily predictions for brighter satellites

Satellite Brightness Start Highest point End
(mag) Time Altitude Azimuth Time Altitude Azimuth Time Altitude Azimuth
Tsikada Rocket 4.1 17:17:01 10° N 17:23:19 88° W 17:29:40 10° S
Meteor 2-4 Rocket 4.1 17:17:27 10° NNW 17:23:25 77° W 17:29:16 10° S
Cosmos 2278 Rocket 2.5 17:17:58 10° NNW 17:23:32 52° NE 17:29:04 10° SE
Okean O Rocket 3.1 17:21:39 10° ESE 17:24:49 20° ENE 17:27:59 10° NNE
NOSS 2-1 (C) 3.5 17:22:30 10° NW 17:26:08 88° SW 17:31:05 10° SE
CZ-4B DEB 4.3 17:22:36 10° SE 17:28:00 59° ENE 17:33:24 10° N
Cosmos 1626 4.1 17:28:21 10° NNW 17:30:57 27° W 17:33:32 10° SSW
CZ-4B R/B 3.7 17:27:36 10° SE 17:32:37 39° ENE 17:37:35 10° N
TSX-5 3.9 17:31:19 10° NW 17:34:23 54° WSW 17:37:34 10° SSE
CZ-4 R/B 1.5 17:31:35 10° SE 17:35:17 48° ENE 17:39:03 10° N
COSMO-SKYMED 1 4.1 17:32:13 10° N 17:36:21 42° WNW 17:40:26 10° SW
Cosmos 1766 Rocket 3.7 17:33:15 10° S 17:37:27 50° E 17:41:43 10° NNE
USA 306 2.3 17:35:08 10° SW 17:38:08 60° SSE 17:41:41 10° ENE
ADEOS 3.6 17:33:03 10° SSE 17:38:16 83° ENE 17:43:32 10° NNW
Resurs 01 Rocket 2.2 17:34:48 10° SE 17:38:55 40° ENE 17:43:04 10° N
GEOS 3 Rocket 3.6 17:33:45 10° SE 17:38:59 79° NE 17:44:10 10° NW
Cosmos 2360 Rocket 3.6 17:34:38 10° WSW 17:40:00 43° NW 17:45:23 10° NNE
Helios 1A 3.2 17:36:27 10° NNE 17:40:22 44° E 17:44:15 10° S
PAYLOAD B 4.4 17:35:23 10° SE 17:40:51 59° ENE 17:46:23 10° N
YAOGAN 1 3.7 17:37:38 10° S 17:41:46 46° W 17:45:55 10° NNW
Cosmos 1814 Rocket 4.1 17:36:38 10° S 17:41:47 55° ESE 17:46:55 10° NNE
USA 267 3.9 17:35:38 10° ENE 17:41:55 52° N 17:48:14 10° W
CZ-4B R/B 3.4 17:37:12 10° SSE 17:41:58 89° ENE 17:46:49 10° NNW
USA 290 2.2 17:40:14 10° NNW 17:43:32 68° ENE 17:46:48 10° SSE
Kosmos-1783 1.9 17:41:19 10° SW 17:43:39 61° SE 17:45:19 10° NE
SPOT 5 4.3 17:43:06 11° E 17:46:04 18° ENE 17:49:07 10° NNE
KORONAS-FOTON 3.7 17:44:21 10° N 17:48:02 66° ENE 17:51:42 10° SSE
Okean-O 4.1 17:45:38 11° ESE 17:48:29 20° ENE 17:51:40 10° NNE
Cosmos 1743 3.0 17:45:20 10° SSW 17:48:51 64° W 17:52:26 10° N
USA 186 2.2 17:45:56 10° SE 17:48:59 42° ENE 17:52:05 10° N
SPOT 1/Viking Rocket 3.6 17:44:24 10° SSE 17:49:35 85° WSW 17:54:47 10° NNW
SKYMED 3 4.4 17:47:09 10° NNE 17:51:17 68° ESE 17:55:22 10° S
Cosmos 2322 Rocket 4.2 17:47:30 10° WSW 17:52:34 32° NW 17:57:39 10° NNE
Cosmos 2237 Rocket 2.8 17:47:53 10° SSE 17:52:50 33° ESE 17:57:49 10° NE
Helios 1B rocket 4.5 17:49:41 10° SSW 17:53:03 28° W 17:56:26 10° NW
SL-08 R/B 3.4 17:49:20 10° NNE 17:54:17 80° ESE 17:59:12 10° SSW
CZ-4B R/B 2.8 17:51:33 10° SSE 17:55:25 77° ENE 17:59:31 10° NNW
ISS -2.6 17:53:05 10° SSW 17:55:55 26° SE 17:57:44 16° E
CSL-04 Rocket 3.8 17:51:25 10° SE 17:56:36 53° ENE 18:01:45 10° N
Cosmos 2219 Rocket 3.1 17:51:49 10° SW 17:57:23 55° NW 18:02:58 10° NNE
Aureole 1 4.3 17:56:30 10° NNW 17:59:33 65° ENE 18:02:47 12° SSE
Meteor 1-14 Rocket 4.1 17:55:35 10° S 18:01:02 67° E 18:06:34 10° NNE
NOSS 2-1 (E) 4.4 17:59:40 10° NW 18:03:23 48° SW 18:08:25 10° SSE
Cosmos 1328 Rocket 3.9 17:59:22 10° NNW 18:03:38 67° W 18:07:54 10° S
Meteor 1-11 Rocket 4.1 17:59:05 10° SSE 18:04:14 39° E 18:09:22 10° NNE
Cosmos 1356 Rocket 3.3 18:02:19 10° N 18:06:33 81° ENE 18:10:43 10° SSE
Cosmos 1674 3.5 18:03:42 10° NNW 18:06:55 45° W 18:10:05 10° SSW
Lacrosse 4 Rocket 3.7 18:04:32 10° WNW 18:08:01 24° WSW 18:11:27 10° SSW
SJ-6B 3.7 18:08:03 10° S 18:11:32 45° W 18:15:01 10° NNW
Cosmos 158 Rocket 4.4 18:07:36 10° SSE 18:11:58 34° ESE 18:16:20 10° NE
BREEZE-M DEB (TANK) 3.5 18:09:17 10° W 18:12:01 82° S 18:16:40 16° E
SeaSat 1 4.1 18:07:46 10° NNE 18:12:15 36° NW 18:16:42 10° WSW
Iridium 4 Rocket 4.1 18:09:46 10° NNW 18:13:46 45° W 18:17:44 10° SSW
CARTOSAT-1 3.4 18:10:13 10° SSE 18:14:28 84° ENE 18:18:45 10° NNW
Meteor 1-4 Rocket 3.1 18:11:57 10° NNW 18:14:30 40° W 18:17:00 10° S
Cosmos 2333 Rocket 4.3 18:10:38 10° WSW 18:15:38 30° NW 18:20:41 10° NNE
ATLAS CENTAUR R/B 1.8 18:13:38 10° S 18:16:46 30° ESE 18:19:54 11° ENE
Cosmos 1805 Rocket 4.4 18:15:48 19° SE 18:17:48 28° E 18:21:30 10° NNE
In-Cosmos 22 4.2 18:12:47 10° N 18:18:32 73° ENE 18:24:06 10° SSE
Cosmos 2369 Rocket 3.5 18:15:31 10° NNW 18:20:18 26° NE 18:23:25 17° E
ARGOS Delta rocket 4.4 18:16:28 10° S 18:21:28 63° W 18:26:13 10° NNW
Cosmos 1980 3.7 18:16:39 10° S 18:22:12 58° ESE 18:27:47 10° NE
Cosmos 1733 2.8 18:21:59 10° S 18:25:23 65° E 18:28:48 10° NNE
Cosmos 1943 Rocket 2.1 18:22:32 10° NNW 18:28:05 85° WSW 18:32:34 16° SSE
NOSS 0 Rocket 3.9 18:22:13 10° SSW 18:28:27 81° ESE 18:34:44 10° NNE
USA 276 3.0 18:27:17 10° W 18:29:49 29° SSW 18:30:24 26° S
Nadezhda 4 Rocket 4.0 18:23:55 10° N 18:30:12 80° E 18:36:32 10° SSE
ACS3 Solar Sail 1.9 18:24:19 11° SSE 18:30:28 69° ENE 18:36:51 10° N
CSL-04 Debris 4.3 18:26:59 10° SSE 18:32:28 80° WSW 18:37:59 10° NNW
SWARM A 4.2 18:29:55 16° S 18:32:39 69° E 18:36:09 10° N
Cosmos 2298 Rocket 4.2 18:27:45 10° NNW 18:33:01 58° ENE 18:35:57 25° SE
Sich 1 3.4 18:30:57 22° SSE 18:33:15 41° E 18:37:20 10° NNE
Cosmos 2150 Rocket 4.1 18:29:38 10° NNW 18:34:45 59° ENE 18:37:30 27° SE
BlueWalker 3 4.3 18:33:07 10° W 18:35:26 16° SW 18:37:45 10° S
USA 32 4.2 18:30:33 10° N 18:35:43 54° E 18:38:54 23° SSE
ERS-1 Rocket 3.8 18:34:09 25° ESE 18:35:58 33° ENE 18:40:25 10° N
Terra 2.9 18:35:11 24° E 18:36:26 27° ENE 18:40:23 10° N
Cosmos 1570 Rocket 4.0 18:31:15 10° S 18:36:27 63° ESE 18:41:40 10° NNE
Cosmos 2026 Rocket 4.2 18:31:32 10° N 18:37:39 52° ENE 18:41:19 23° SE
Cosmos 1092 Rocket 4.2 18:31:51 10° N 18:38:01 52° ENE 18:41:49 23° SE
Cosmos 1975 3.9 18:43:59 27° ENE 18:43:59 27° ENE 18:46:36 10° NNE
Ariane Rocket 4.2 18:44:13 23° E 18:45:25 26° ENE 18:49:33 10° N
Cosmos 1315 Rocket 2.8 18:43:09 10° NNW 18:47:09 84° W 18:49:14 27° S
Cosmos 1805 3.1 18:47:21 47° SE 18:47:51 52° E 18:51:26 10° NNE
Cosmos 1464 Rocket 4.1 18:43:48 10° SSW 18:50:08 81° W 18:56:34 10° N
Cosmos 1125 Rocket 3.9 18:46:21 10° NNW 18:51:29 59° WSW 18:55:24 17° S
Cosmos 839 Rocket 4.4 18:43:13 10° SSW 18:51:46 74° SE 18:58:36 10° NE
SL-16 R/B 2.9 18:53:32 31° E 18:53:32 31° E 18:58:09 10° NE
ATLAS 2AS CENTAUR R/B 4.4 18:47:36 10° WNW 18:53:36 28° N 18:59:25 10° NE
Cosmos 1634 Rocket 4.3 18:51:54 27° SE 18:54:56 45° E 19:00:54 10° NNE
Cosmos 1536 3.6 18:51:15 10° SSW 18:54:57 49° WNW 18:58:42 10° N
USA 59 Rocket 2.3 18:52:05 10° WNW 18:55:14 21° WSW 18:59:08 10° S
Okean 3 Rocket 4.4 18:51:05 10° SSW 18:55:26 53° WNW 18:59:48 10° N
Okean 3 4.5 18:53:12 10° N 18:56:38 29° ENE 18:56:38 29° ENE
COSMOS 2428 3.9 18:52:21 10° WSW 18:57:48 44° NW 19:03:18 10° NNE
Cosmos 1656 Rocket 4.0 18:52:28 10° NNW 18:58:01 52° NE 18:59:58 36° ESE
Okean O Rocket 2.0 18:57:42 20° S 19:00:40 61° WSW 19:05:05 10° NNW
SL-14 R/B 3.0 19:01:03 10° N 19:04:52 86° E 19:05:27 62° SSE
IRS-1C Rocket 4.2 19:04:02 40° ESE 19:05:39 57° ENE 19:10:50 10° N
Cosmos 773 Rocket 4.1 19:05:45 37° SSE 19:07:21 50° ESE 19:12:29 10° NNE
Cosmos 2278 Rocket 3.7 19:02:25 10° NW 19:07:23 32° WSW 19:12:20 10° SSW
CZ-4 R/B 4.0 19:07:28 10° SW 19:10:04 17° W 19:12:43 10° NW
PSLV R/B 4.0 19:09:57 45° SSW 19:10:44 59° WSW 19:14:14 10° NNW
USA 306 3.1 19:07:30 10° W 19:10:50 51° N 19:11:32 43° NNE
Meteor 2-9 Rocket 4.2 19:06:05 10° SSW 19:11:25 75° WNW 19:16:54 10° N
Cosmos 2034 Rocket 4.0 19:06:11 10° SSW 19:12:24 80° W 19:18:36 10° N
Okean 1-7 4.4 19:09:13 10° NNE 19:12:07 24° NE 19:12:07 24° NE
CZ-4B R/B 4.5 19:08:10 10° SSW 19:13:12 38° W 19:18:12 10° NNW
Cosmos 1627 Rocket 4.4 19:06:57 10° N 19:13:17 88° ENE 19:16:36 30° S
Cosmos 1500 Rocket 3.7 19:10:44 16° SSW 19:14:10 72° WNW 19:18:31 10° N
Resurs 01 Rocket 3.6 19:11:43 10° SSW 19:15:28 27° W 19:19:14 10° NW
STPSAT 2 (USA 217) 4.5 19:11:18 10° NNW 19:15:54 78° ENE 19:16:33 63° SE
MetOp-B 4.1 19:14:53 37° SSE 19:17:09 86° WSW 19:22:33 10° NNW
Cosmos 2228 Rocket 3.1 19:13:07 10° N 19:17:39 60° ENE 19:17:55 59° E
NOSS 3-3 (C) 3.6 19:12:26 10° SSW 19:17:50 70° SE 19:24:14 10° NE
Meteor 1-23 Rocket 4.4 19:12:53 10° NNW 19:18:30 70° W 19:21:41 27° S
CRYOSAT 2 4.2 19:15:26 10° N 19:20:22 84° E 19:21:56 44° S
SPOT 3 Rocket 3.9 19:20:19 44° E 19:20:50 45° ENE 19:25:43 10° N
Cosmos 1743 Rocket 3.5 19:19:19 40° SSW 19:20:51 81° W 19:25:13 10° N
SPOT 5 2.9 19:22:14 42° S 19:23:40 68° WSW 19:28:08 10° NNW
USA 267 3.6 19:21:01 29° E 19:24:27 59° NNE 19:30:51 10° WNW
Okean-O 3.0 19:23:04 39° SSW 19:24:27 60° WSW 19:28:51 10° NNW
Cosmos 2208 Rocket 4.2 19:22:36 10° SSW 19:27:51 71° WNW 19:33:13 10° NNE
NOSS 3-3 (A) 3.7 19:26:34 10° SW 19:32:02 88° SE 19:38:33 10° NE
ISS -1.9 19:29:05 10° WSW 19:30:43 26° WSW 19:30:43 26° WSW
Cosmos 2279 Rocket 4.0 19:35:28 53° SE 19:36:29 61° E 19:42:37 10° NNE
Cosmos 2237 Rocket 3.0 19:31:15 10° SW 19:36:42 50° NW 19:42:11 10° NNE
Aureole 3 Rocket 4.2 19:31:46 10° SSW 19:38:20 57° WNW 19:43:02 10° N
Cosmos 1607 3.9 19:33:20 10° SSW 19:39:44 65° ESE 19:46:06 10° NE
Cosmos 2297 3.5 19:40:40 10° NNW 19:46:21 86° WSW 19:47:05 69° SSE
MOS 1 Rocket 4.0 19:45:39 43° SSW 19:47:02 58° W 19:52:16 10° NNW
Spot 2 Rocket 3.3 19:50:59 83° S 19:51:10 87° WSW 19:56:15 10° NNW
ATLAS CENTAUR R/B 2.6 19:50:42 10° WSW 19:54:05 36° NW 19:54:53 32° N
NOSS 3-4 (A) 3.7 19:48:40 10° NW 19:55:26 84° SW 19:57:12 57° SSE
NOSS 3-4 (C) 3.7 19:48:47 10° NW 19:55:33 85° SW 19:57:18 57° SSE
Cosmos 1633 Rocket 4.1 20:06:10 40° N 20:06:10 40° N 20:09:04 10° N
Cosmos 2369 Rocket 2.1 19:59:13 10° NNW 20:04:57 78° WSW 20:05:11 76° SW
Cosmos 1862 Rocket 4.2 20:02:43 10° NNW 20:06:32 52° WNW 20:06:32 52° WNW
Terra 2.6 20:13:52 45° W 20:13:52 45° W 20:18:21 10° NNW
ERS-1 Rocket 3.9 20:14:03 40° WSW 20:14:36 41° W 20:19:22 10° NNW
ACS3 Solar Sail 3.7 20:09:51 10° SW 20:15:04 26° W 20:20:17 10° NNW
Ariane Rocket 3.5 20:24:21 54° W 20:24:21 54° W 20:29:01 10° NNW
Cosmos 2266 Rocket 3.9 20:18:46 10° N 20:25:04 89° E 20:25:06 89° SE
SL-16 R/B 2.8 20:35:16 38° WSW 20:37:04 53° NW 20:42:39 10° NNE
ATLAS 2AS CENTAUR R/B 4.0 20:40:17 10° NW 20:46:31 33° NNE 20:49:09 25° ENE
Cosmos 1943 4.4 20:59:59 34° NNE 20:59:59 34° NNE 21:03:03 10° NNE
USA 267 3.4 21:08:22 64° W 21:08:22 64° W 21:13:56 10° WNW
Cosmos 1697 Rocket 4.4 21:06:12 10° NNW 21:10:46 25° NE 21:10:46 25° NE
Cosmos 1655 Rocket 4.3 21:04:57 10° NNW 21:10:37 62° WNW 21:10:37 62° WNW
Cosmos 2344 4.0 21:07:22 10° NW 21:15:15 66° NE 21:17:17 54° E
Cosmos 1980 Rocket 3.8 22:06:22 10° NNW 22:10:31 29° NNE 22:10:31 29° NNE
USA 215 3.9 22:07:59 10° ENE 22:12:42 49° NE 22:12:42 49° NE
ATLAS 2AS CENTAUR R/B 3.3 22:31:30 10° NW 22:36:31 50° NNW 22:36:31 50° NNW
Cosmos 1833 Rocket 4.4 22:43:21 27° NE 22:43:21 27° NE 22:45:54 10° NE
Cosmos 1697 Rocket 4.3 22:49:47 10° NNW 22:52:29 29° NNW 22:52:29 29° NNW
Cosmos 2082 Rocket 3.8 23:25:38 27° ENE 23:25:38 27° ENE 23:28:38 10° NE
Cosmos 2333 Rocket 4.4 23:31:30 10° NNW 23:35:56 22° NE 23:40:19 10° E
SL-16 R/B 3.6 23:31:29 10° NNW 23:36:38 34° NE 23:37:43 31° ENE
CZ-2C R/B 3.7 23:46:19 39° NNE 23:46:19 39° NNE 23:49:56 10° N
Resurs 1-4 Rocket 3.9 23:41:15 10° NE 23:44:45 23° E 23:44:45 23° E
